[[{"header":{"parameterUnit":"m.s-1","parameterCategory":1,"la1":30.2991,"la2":30.254,"lo1":-89.0895,"lo2":-89.0444,"dy":0.0017,"dx":0.0017,"nx":28,"ny":28,"refTime":"2024-07-12T21:00:00:Z","depth":0,"parameterNumber":2,"parameterNumberName":"U-component_of_WINDS"},"data":[0,0,0,0,0,0,0,0,0,0,0,0,0,0,0,0,0,0,0,0,0,0,0,0,0,0,0,0,0,0,0,0,0,0,0,0,0,0,0,0,0,0,0,0,0,0,0,0,0,0,0,0,0,0,0,0,0,0,3.8711,3.8711,0,3.8746,3.8747,3.8747,3.8655,3.8652,3.8649,3.8646,3.8682,3.8685,3.8689,0,0,0,0,0,0,0,0,0,0,0,0,0,3.856,3.8564,3.8711,3.8711,3.8712,3.8746,3.8747,3.8747,3.8655,3.8652,3.8648,3.8645,3.868,3.8685,3.8689,0,0,0,0,0,0,0,0,0,0,0,0,0,3.8614,3.8565,3.871,3.867,3.8667,3.8746,3.8747,3.8747,3.8656,3.8652,3.8647,3.8643,3.8679,3.8684,3.869,3.881,0,0,3.8706,3.8709,0,0,0,0,0,0,0,0,3.8611,3.8619,3.8675,3.8673,3.8669,3.8692,3.8706,3.8768,3.8657,3.866,3.8646,3.8641,3.8688,3.8693,3.8709,3.8811,3.8813,3.8707,3.871,3.8712,3.8714,0,0,0,0,0,0,0,3.8607,3.8617,3.8725,3.8676,3.8673,3.8649,3.8652,3.8718,3.8698,3.866,3.8653,3.8658,3.8686,3.8704,3.8709,3.8813,3.8707,3.8711,3.8715,3.8717,3.9012,3.9016,0,0,0,0,0,0,3.8609,3.8615,3.8723,3.8726,3.8629,3.8655,3.8658,3.8689,3.8697,3.8694,3.8662,3.8654,3.8697,3.8703,3.871,3.8847,3.8712,3.8717,3.872,3.9007,3.9013,3.9018,0,0,0,0,0,0,3.8606,3.862,3.8722,3.8669,3.868,3.8662,3.8697,3.8692,3.871,3.8699,3.8695,3.8684,3.8694,3.8702,3.8785,3.8847,3.872,3.8725,3.9002,3.9009,3.9015,3.9125,0,0,0,0,0,0,3.8602,3.8619,3.8665,3.867,3.8683,3.8797,3.8701,3.8696,3.8719,3.8709,3.8719,3.8716,3.8691,3.8777,3.879,3.8852,3.8729,3.8996,3.9005,3.9013,3.9115,3.9134,3.9151,0,0,0,0,0,3.8597,3.8695,3.8668,3.8682,3.874,3.8801,3.8808,3.8777,3.8725,3.877,3.8763,3.8716,3.8839,3.8786,3.88,3.8865,3.8992,3.9002,3.9012,3.9107,3.9131,3.915,0,0,0,0,0,0,3.8698,3.8695,3.8665,3.8768,3.8785,3.8785,3.8841,3.8804,3.8836,3.8825,3.8786,3.8789,3.8877,3.888,3.8821,3.8979,3.8906,3.892,3.8974,3.8996,3.9013,3.9009,3.8734,0,0,0,0,0,3.8733,3.8783,3.8778,3.8869,3.8879,3.8859,3.8885,3.8859,3.8876,3.8882,3.8881,3.8899,3.894,3.8969,3.9008,3.9117,3.9115,3.9168,3.9186,3.92,3.9211,3.9265,3.9287,3.9051,3.9051,3.9051,0,0,3.8804,3.8808,3.8842,3.8889,3.8899,3.895,3.8866,3.8925,3.8961,3.8891,3.8967,3.8968,3.8984,3.9079,3.9121,3.9084,3.9277,3.9214,3.9225,3.9228,3.9278,3.93,3.932,3.9058,3.9057,3.9056,0,0,3.8958,3.8969,3.9043,3.9056,3.9072,3.9058,3.9077,3.9083,3.9079,3.9156,3.9103,3.9147,3.9222,3.9234,3.925,3.9409,3.9365,3.9423,3.9514,3.9567,3.9585,3.9601,3.9653,3.9673,3.9435,3.9435,3.9435,0,3.9043,3.9119,3.9087,3.9148,3.9168,3.9108,3.9182,3.9196,3.9225,3.9239,3.9198,3.9288,3.9296,3.9391,3.9429,3.9446,3.9463,3.942,3.9585,3.9601,3.9616,3.9665,3.9685,3.9442,3.9441,3.944,3.944,0,3.9221,3.9274,3.9333,3.9361,3.9389,3.9457,3.9433,3.9465,3.9438,3.9428,3.9505,3.9512,3.9549,3.9571,3.9546,3.9662,3.9638,3.9592,3.9517,3.9645,3.969,3.9709,3.9451,3.9449,3.9447,3.9445,0,0,3.9437,3.9447,3.9468,3.9479,3.9493,3.9533,3.9598,3.9634,3.966,3.9683,3.9733,3.9797,3.9754,3.9773,3.9749,3.9796,3.9915,3.9744,3.9743,3.9771,4.0039,4.007,4.0092,3.9889,3.9892,3.9895,4.0036,0,3.9586,3.9695,3.9668,3.9776,3.9822,3.9766,3.9821,3.9835,3.9828,3.9866,3.9858,3.9902,3.9845,3.9855,3.9899,3.9892,3.9968,3.9882,3.9932,3.9934,3.9924,4.0117,4.015,4.0282,4.0054,4.0057,4.0059,0,3.9773,3.9801,3.9914,3.9917,3.9936,3.9987,4.0016,4.0054,4.0068,4.0059,4.008,4.0046,4.0107,4.0035,4.0118,4.006,4.0079,4.0078,4.0083,4.0082,4.0001,4.0117,4.0325,4.0343,4.0088,4.0086,4.0083,0,3.9913,3.998,4.0055,4.0067,4.0074,4.011,4.0115,4.0125,4.0148,4.0174,4.0188,4.0222,4.0239,4.0265,4.024,4.0191,4.0325,4.0252,4.0317,4.0317,4.0343,4.0341,4.0552,4.0365,4.0365,4.0364,4.0364,0,4.0079,4.0149,4.0117,4.0163,4.0239,4.0207,4.0283,4.0281,4.029,4.0333,4.0289,4.033,4.0297,4.0335,4.0317,4.0385,4.0395,4.0387,4.038,4.0388,4.0388,4.0397,4.0385,4.037,4.0368,4.0367,4.0366,0,4.0246,4.0229,4.0305,4.0307,4.0308,4.0364,4.0364,4.0405,4.0395,4.045,4.0461,4.0445,4.0487,4.0466,4.0511,4.0498,4.0585,4.0569,4.058,4.0574,4.0638,4.063,4.0857,4.0884,4.0684,4.0686,4.0688,0,4.035,4.0402,4.0409,4.0434,4.0442,4.0484,4.0507,4.0478,4.0503,4.0522,4.056,4.0599,4.0627,4.0698,4.0689,4.0722,4.0703,4.078,4.0707,4.0712,4.0698,4.0693,4.0696,4.0793,4.0796,4.0798,4.0799,0,4.0536,4.0524,4.0558,4.0589,4.0617,4.0641,4.066,4.0683,4.0654,4.0685,4.0727,4.075,4.0794,4.0832,4.086,4.0864,4.0826,4.0823,4.0839,4.0845,4.0847,4.0841,4.0615,4.0817,4.0815,4.0814,4.0813,4.0812,4.0671,4.0713,4.0723,4.0762,4.0774,4.0792,4.083,4.0824,4.0859,4.0893,4.0874,4.0923,4.0934,4.0968,4.0977,4.1014,4.0983,4.1007,4.1012,4.1017,4.1023,4.0846,4.102,4.1019,4.1019,4.1018,4.1018,0,4.0849,4.0853,4.0889,4.0917,4.0947,4.0911,4.093,4.0957,4.1,4.1014,4.1043,4.1091,4.1127,4.1121,4.1154,4.1184,4.1167,4.1193,4.1188,4.1188,4.1052,4.1032,4.1206,4.1206,4.1206,4.1206,4.1206,4.1206,4.0945,4.1013,4.1002,4.1075,4.1078,4.1125,4.1139,4.1155,4.1165,4.122,4.125,4.1246,4.1252,4.1284,4.1315,4.1312,4.1324,4.1355,4.1346,4.1217,4.1199,4.1181,4.1162,4.136,4.136,4.1479,4.148,4.1481]},{"header":{"parameterUnit":"m.s-1","parameterCategory":1,"la1":30.2991,"la2":30.254,"lo1":-89.0895,"lo2":-89.0444,"dy":0.0017,"dx":0.0017,"nx":28,"ny":28,"refTime":"2024-07-12T21:00:00:Z","depth":0,"parameterNumber":3,"parameterNumberName":"V-component_of_WINDS"},"data":[0,0,0,0,0,0,0,0,0,0,0,0,0,0,0,0,0,0,0,0,0,0,0,0,0,0,0,0,0,0,0,0,0,0,0,0,0,0,0,0,0,0,0,0,0,0,0,0,0,0,0,0,0,0,0,0,0,0,1.6779,1.6779,0,1.6759,1.6758,1.6758,1.6721,1.672,1.672,1.6719,1.6698,1.6699,1.6699,0,0,0,0,0,0,0,0,0,0,0,0,0,1.6787,1.6787,1.6779,1.6779,1.6779,1.6759,1.6758,1.6758,1.6721,1.672,1.672,1.6719,1.6698,1.6699,1.6699,0,0,0,0,0,0,0,0,0,0,0,0,0,1.6777,1.6787,1.678,1.6758,1.6756,1.6759,1.6758,1.6758,1.6721,1.672,1.6719,1.6718,1.6698,1.6699,1.6699,1.6721,0,0,1.6699,1.6699,0,0,0,0,0,0,0,0,1.6777,1.6776,1.6762,1.676,1.6757,1.6741,1.6753,1.6745,1.6722,1.6735,1.6719,1.6718,1.6714,1.6712,1.6711,1.672,1.6719,1.6699,1.6699,1.6699,1.6699,0,0,0,0,0,0,0,1.6778,1.6777,1.6771,1.6761,1.6759,1.6749,1.6747,1.6752,1.673,1.6733,1.6731,1.6729,1.6712,1.6711,1.671,1.6718,1.6699,1.6699,1.6699,1.6699,1.6742,1.6743,0,0,0,0,0,0,1.6782,1.6778,1.6772,1.6771,1.6765,1.675,1.6747,1.6748,1.673,1.6726,1.673,1.6727,1.6711,1.671,1.6709,1.6732,1.6699,1.6699,1.67,1.6741,1.6742,1.6743,0,0,0,0,0,0,1.6782,1.6782,1.6773,1.6773,1.6772,1.6751,1.6752,1.6748,1.6746,1.6727,1.6723,1.6732,1.671,1.6709,1.6717,1.6731,1.67,1.67,1.674,1.6741,1.6743,1.6779,0,0,0,0,0,0,1.6783,1.6782,1.6791,1.6774,1.6772,1.6782,1.6753,1.6748,1.6746,1.6743,1.6728,1.6725,1.6709,1.6717,1.6718,1.6731,1.67,1.6738,1.674,1.6742,1.6777,1.6782,1.6786,0,0,0,0,0,1.6783,1.6802,1.6791,1.6791,1.6782,1.6783,1.6781,1.6762,1.6748,1.6756,1.6743,1.6726,1.673,1.6719,1.6719,1.6732,1.6737,1.674,1.6742,1.6775,1.6781,1.6786,0,0,0,0,0,0,1.6822,1.68,1.6787,1.6802,1.6794,1.6776,1.6786,1.677,1.6767,1.6764,1.6741,1.6738,1.6749,1.6741,1.6729,1.6751,1.6731,1.6733,1.6755,1.6761,1.6766,1.6767,1.67,0,0,0,0,0,1.6832,1.6834,1.6815,1.683,1.6826,1.6807,1.6807,1.6792,1.6784,1.6781,1.6769,1.6761,1.676,1.6761,1.6759,1.6776,1.6771,1.6784,1.6789,1.6793,1.6795,1.6802,1.6807,1.6751,1.6751,1.6751,0,0,1.6853,1.6841,1.6844,1.6837,1.683,1.6832,1.6804,1.6809,1.681,1.6781,1.6788,1.6779,1.6769,1.6781,1.6786,1.6775,1.681,1.6796,1.68,1.6799,1.6805,1.681,1.6815,1.6752,1.6752,1.6752,0,0,1.6892,1.6884,1.6895,1.6887,1.6876,1.6862,1.6865,1.6849,1.6842,1.6848,1.6826,1.6827,1.6827,1.682,1.6817,1.6851,1.6835,1.6852,1.6876,1.6883,1.6887,1.6891,1.6902,1.6906,1.6854,1.6854,1.6854,0,1.692,1.6923,1.6902,1.6907,1.6904,1.6877,1.6887,1.6881,1.687,1.6868,1.6856,1.6854,1.6845,1.6854,1.6863,1.6861,1.6863,1.6853,1.6888,1.6892,1.6895,1.6905,1.6909,1.6856,1.6856,1.6856,1.6856,0,1.6957,1.6959,1.6969,1.6957,1.6955,1.6963,1.6943,1.6943,1.6929,1.6917,1.6922,1.6911,1.6906,1.6907,1.6894,1.6914,1.6907,1.6892,1.6871,1.6903,1.6912,1.6916,1.6859,1.6858,1.6858,1.6857,0,0,1.702,1.6996,1.7,1.6994,1.6979,1.698,1.6986,1.698,1.698,1.6973,1.6976,1.6976,1.6961,1.6957,1.6943,1.6949,1.6975,1.6932,1.6932,1.694,1.6994,1.7005,1.701,1.6964,1.6964,1.6965,1.6995,0,1.7056,1.7064,1.7044,1.7057,1.7058,1.7032,1.7036,1.7027,1.7016,1.7014,1.7002,1.7001,1.6982,1.6979,1.6984,1.6971,1.6985,1.6969,1.6966,1.6966,1.6968,1.7015,1.7027,1.7055,1.6998,1.6999,1.6999,0,1.7098,1.7092,1.7104,1.7086,1.7086,1.7091,1.7083,1.7082,1.7071,1.7062,1.7057,1.7039,1.7043,1.7023,1.7027,1.7016,1.7014,1.7007,1.7007,1.7006,1.6984,1.7013,1.7064,1.7068,1.7005,1.7005,1.7004,0,1.7141,1.7136,1.7142,1.7138,1.7118,1.7121,1.7113,1.7101,1.7098,1.7091,1.7089,1.7083,1.708,1.7075,1.7056,1.7044,1.7062,1.7041,1.7054,1.7054,1.7058,1.7058,1.7108,1.7059,1.7059,1.7059,1.7059,0,1.7182,1.719,1.7161,1.7165,1.7173,1.7151,1.7159,1.7148,1.7137,1.7138,1.7116,1.7117,1.7092,1.7091,1.7076,1.7081,1.708,1.7072,1.7068,1.7073,1.7074,1.7071,1.7068,1.706,1.706,1.706,1.7059,0,1.7231,1.7212,1.7217,1.7197,1.7192,1.7199,1.7182,1.7184,1.717,1.7172,1.7171,1.7149,1.7146,1.7127,1.712,1.711,1.7119,1.7112,1.7123,1.712,1.7133,1.7131,1.7182,1.7187,1.7136,1.7136,1.7137,0,1.7258,1.7263,1.7244,1.7242,1.7235,1.7233,1.7229,1.7207,1.7204,1.7191,1.7195,1.7189,1.7184,1.718,1.7163,1.7157,1.7149,1.7167,1.7148,1.7152,1.7147,1.7147,1.7146,1.717,1.7171,1.7172,1.7172,0,1.7307,1.7297,1.7292,1.7284,1.7281,1.7274,1.7265,1.7265,1.724,1.7238,1.7234,1.723,1.7221,1.7216,1.7207,1.7198,1.7181,1.7178,1.7181,1.7186,1.7191,1.7187,1.7132,1.7177,1.7177,1.7176,1.7176,1.7176,1.7345,1.7347,1.7333,1.7329,1.732,1.7312,1.7313,1.7299,1.7295,1.7286,1.7273,1.727,1.7257,1.7242,1.7235,1.7232,1.7222,1.7226,1.7227,1.7228,1.723,1.7193,1.7231,1.723,1.723,1.723,1.723,0,1.7391,1.738,1.7376,1.7364,1.736,1.7344,1.7333,1.7331,1.7329,1.7318,1.7313,1.7307,1.7301,1.7284,1.7277,1.7277,1.7269,1.7276,1.7275,1.7273,1.724,1.7238,1.7283,1.7283,1.7283,1.7283,1.7283,1.7283,1.7414,1.7418,1.7406,1.7404,1.7393,1.739,1.7385,1.7377,1.7368,1.7363,1.7358,1.7346,1.7333,1.7323,1.7317,1.7312,1.731,1.7319,1.7312,1.7281,1.7276,1.7271,1.7269,1.7319,1.7319,1.7345,1.7345,1.7345]}]]